Weather History for Orange, MA

Change the Weather History Date:

Friday, February 21, 2014

  Actual Average Record
Temperature  
Mean Temperature 32 °F -  
Max Temperature 37 °F 34 °F 55 °F (1997)
Min Temperature 26 °F 15 °F 3 °F (2008)
Degree Days  
Heating Degree Days 32    
Moisture  
Dew Point 33 °F    
Average Humidity 95    
Maximum Humidity 100    
Minimum Humidity 89    
Precipitation  
Precipitation 0.20 in - - ()
Sea Level Pressure  
Sea Level Pressure 29.89 in    
Wind  
Wind Speed 2 mph (NNW)    
Max Wind Speed 12 mph    
Max Gust Speed -    
Visibility 3 miles    
Events Fog , Rain , Thunderstorm    
Averages and records for this station are not official NWS values.
T = Trace of Precipitation, MM = Missing Value Source: NWS Daily Summary

Daily Weather History Graph

Daily Weather History Graph

Search for Another Location

Airport:

Trip Planner

Search our weather history database for the weather conditions in past years. The results will help you decide how hot, cold, wet, or windy it might be!

Date:

Astronomy

Feb. 21, 2014 Rise Set
Actual Time 6:37 AM EST 5:28 PM EST
Civil Twilight 6:08 AM EST 5:57 PM EST
Nautical Twilight 5:35 AM EST 6:30 PM EST
Astronomical Twilight 5:03 AM EST 7:02 PM EST
Moon No Moon Rise 9:50 AM EST (2/21)
Length of Visible Light 11h 48m
Length of Day
10h 51m
Waning Gibbous, 61% of the Moon is Illuminated
Feb 21
Waning Gibbous
Feb 22
Last Quarter
Mar 1
New
Mar 8
First Quarter
Mar 16
Full

Hourly Weather History & Observations

Time (EST) Temp. Windchill Dew Point Humidity Pressure Visibility Wind Dir Wind Speed Gust Speed Precip Events Conditions
12:01 AM 32.0 °F - 30.9 °F 96% 30.11 in 5.0 mi Calm Calm - N/A   Overcast
12:38 AM 32.0 °F - 30.9 °F 96% 30.08 in 2.0 mi Calm Calm - N/A   Overcast
12:52 AM 32.0 °F - 30.9 °F 96% 30.10 in 1.5 mi Calm Calm - N/A   Overcast
1:20 AM 32.0 °F 28.7 °F 30.9 °F 96% 30.09 in 2.5 mi NW 3.5 mph - N/A   Overcast
1:34 AM 32.0 °F - 30.9 °F 96% 30.08 in 1.2 mi Calm Calm - N/A   Overcast
1:44 AM 32.0 °F - 30.9 °F 96% 30.07 in 1.0 mi Calm Calm - N/A   Overcast
1:52 AM 32.0 °F - 32.0 °F 100% 30.09 in 1.2 mi Calm Calm - N/A   Overcast
2:03 AM 32.0 °F - 32.0 °F 100% 30.07 in 1.8 mi Calm Calm - N/A   Overcast
2:11 AM 32.0 °F - 30.9 °F 96% 30.07 in 1.0 mi Calm Calm - N/A   Overcast
2:16 AM 32.0 °F - 30.9 °F 96% 30.07 in 1.2 mi Calm Calm - N/A   Overcast
2:27 AM 32.0 °F 28.7 °F 30.9 °F 96% 30.07 in 2.0 mi NW 3.5 mph - N/A   Overcast
2:42 AM 32.0 °F 27.5 °F 30.9 °F 96% 30.07 in 1.2 mi NW 4.6 mph - N/A   Overcast
2:52 AM 32.0 °F 28.7 °F 30.9 °F 96% 30.08 in 1.2 mi NW 3.5 mph - N/A   Overcast
2:54 AM 32.0 °F - 30.9 °F 96% 30.06 in 1.5 mi Calm Calm - N/A   Overcast
3:02 AM 32.0 °F - 32.0 °F 100% 30.05 in 1.0 mi Calm Calm - 0.00 in   Overcast
3:17 AM 32.0 °F - 32.0 °F 100% 30.04 in 1.5 mi Calm Calm - 0.00 in   Overcast
3:23 AM 32.0 °F 28.7 °F 32.0 °F 100% 30.04 in 3.0 mi South 3.5 mph - 0.00 in   Overcast
3:45 AM 33.1 °F - 32.0 °F 96% 30.02 in 6.0 mi Calm Calm - 0.00 in Rain Light Rain
3:52 AM 33.1 °F 30.0 °F 30.9 °F 92% 30.04 in 10.0 mi Variable 3.5 mph - 0.00 in   Overcast
4:52 AM 33.1 °F 30.0 °F 30.9 °F 92% 30.07 in 5.0 mi NE 3.5 mph - 0.02 in Rain Light Rain
5:44 AM 34.0 °F - 32.0 °F 92% 30.05 in 10.0 mi Calm Calm - 0.01 in   Overcast
5:52 AM 33.1 °F - 30.9 °F 92% 30.06 in 10.0 mi Calm Calm - 0.01 in   Overcast
6:09 AM 33.1 °F 30.0 °F 32.0 °F 96% 30.06 in 10.0 mi SE 3.5 mph - N/A   Overcast
6:50 AM 33.8 °F - 32.0 °F 93% 30.05 in 2.5 mi Calm Calm - N/A   Overcast
6:51 AM 33.1 °F - 32.0 °F 96% 30.07 in 2.5 mi Calm Calm - N/A   Overcast
7:19 AM 33.1 °F - 32.0 °F 96% 30.04 in 2.5 mi Calm Calm - N/A   Overcast
7:31 AM 33.1 °F - 32.0 °F 96% 30.03 in 4.0 mi Calm Calm - N/A   Overcast
7:52 AM 34.0 °F - 32.0 °F 92% 30.05 in 8.0 mi Calm Calm - N/A   Overcast
8:52 AM 34.0 °F - 32.0 °F 92% 30.02 in 2.5 mi Calm Calm - N/A   Overcast
9:00 AM 34.0 °F 31.0 °F 32.0 °F 92% 30.00 in 3.0 mi NNW 3.5 mph - N/A   Overcast
9:34 AM 35.1 °F - 34.0 °F 96% 30.00 in 2.0 mi Calm Calm - N/A   Overcast
9:41 AM 35.1 °F - 34.0 °F 96% 30.00 in 1.5 mi Calm Calm - N/A   Overcast
9:52 AM 35.1 °F - 34.0 °F 96% 30.02 in 1.5 mi Calm Calm - N/A   Overcast
10:13 AM 36.0 °F 33.3 °F 34.0 °F 93% 29.99 in 1.2 mi Variable 3.5 mph - 0.01 in   Overcast
10:30 AM 35.1 °F 32.2 °F 34.0 °F 96% 29.97 in 1.8 mi NE 3.5 mph - 0.01 in   Overcast
10:39 AM 35.1 °F - 34.0 °F 96% 29.96 in 2.0 mi Calm Calm - 0.01 in   Overcast
10:52 AM 35.1 °F 32.2 °F 34.0 °F 96% 29.99 in 3.0 mi Variable 3.5 mph - 0.01 in   Overcast
11:17 AM 36.0 °F 32.1 °F 33.1 °F 89% 29.95 in 3.0 mi East 4.6 mph - 0.00 in Rain Light Rain
11:24 AM 36.0 °F 33.3 °F 34.0 °F 93% 29.95 in 2.5 mi Variable 3.5 mph - 0.00 in Rain Light Rain
11:31 AM 36.0 °F - 34.0 °F 93% 29.94 in 3.0 mi Calm Calm - 0.01 in Rain Light Rain
11:52 AM 36.0 °F 32.1 °F 33.1 °F 89% 29.94 in 10.0 mi ENE 4.6 mph - 0.01 in   Overcast
12:22 PM 36.0 °F 32.1 °F 34.0 °F 93% 29.90 in 9.0 mi ENE 4.6 mph - 0.00 in Rain Light Rain
12:52 PM 36.0 °F 33.3 °F 34.0 °F 93% 29.90 in 3.0 mi NNE 3.5 mph - 0.00 in Rain Light Rain
1:52 PM 37.0 °F 32.4 °F 35.1 °F 93% 29.84 in 5.0 mi ENE 5.8 mph - 0.01 in   Overcast
2:52 PM 37.0 °F - 35.1 °F 93% 29.80 in 6.0 mi Calm Calm - N/A   Overcast
3:17 PM 37.0 °F 34.5 °F 35.1 °F 93% 29.76 in 2.5 mi East 3.5 mph - 0.00 in Rain Light Rain
3:26 PM 37.0 °F - 36.0 °F 96% 29.76 in 4.0 mi Calm Calm - 0.00 in   Overcast
3:41 PM 37.0 °F 34.5 °F 35.1 °F 93% 29.74 in 1.8 mi ENE 3.5 mph - 0.01 in   Overcast
3:49 PM 37.4 °F 33.8 °F 35.6 °F 93% 29.72 in 1.5 mi ENE 4.6 mph - 0.01 in   Overcast
3:52 PM 37.0 °F 34.5 °F 35.1 °F 93% 29.75 in 1.5 mi NE 3.5 mph - 0.01 in   Overcast
4:23 PM 36.0 °F - 36.0 °F 100% 29.71 in 1.0 mi Calm Calm - 0.00 in   Overcast
4:33 PM 36.0 °F 32.1 °F 35.1 °F 97% 29.71 in 0.8 mi WNW 4.6 mph - 0.01 in Rain Light Rain
4:52 PM 35.1 °F - 35.1 °F 100% 29.71 in 0.5 mi Calm Calm - 0.05 in Fog , Rain , Thunderstorm Rain
5:02 PM 35.1 °F 32.2 °F 35.1 °F 100% 29.69 in 1.2 mi SE 3.5 mph - 0.03 in Rain , Thunderstorm Rain
5:06 PM 36.0 °F 32.1 °F 35.1 °F 97% 29.66 in 1.5 mi ENE 4.6 mph - 0.04 in Rain , Thunderstorm Rain
5:14 PM 36.0 °F - 35.1 °F 97% 29.68 in 3.0 mi Calm Calm - 0.05 in Rain , Thunderstorm Rain
5:23 PM 36.0 °F 33.3 °F 35.1 °F 97% 29.69 in 3.0 mi NW 3.5 mph - 0.06 in Rain Light Rain
5:31 PM 36.0 °F - 35.1 °F 97% 29.67 in 1.8 mi Calm Calm - 0.07 in Rain Light Rain
5:34 PM 35.1 °F 29.3 °F 35.1 °F 100% 29.68 in 1.0 mi NW 6.9 mph - 0.07 in Rain Light Rain
5:42 PM 36.0 °F 28.0 °F 35.1 °F 97% 29.69 in 1.5 mi WNW 11.5 mph - 0.07 in Rain Light Rain
5:45 PM 37.0 °F 29.3 °F 35.1 °F 93% 29.71 in 4.0 mi WNW 11.5 mph - 0.07 in Rain Light Rain
5:52 PM 37.0 °F 29.8 °F 36.0 °F 96% 29.73 in 10.0 mi NW 10.4 mph - 0.07 in Rain Light Rain
6:08 PM 37.0 °F 31.0 °F 36.0 °F 96% 29.73 in 2.5 mi West 8.1 mph - 0.01 in   Overcast
6:15 PM 37.0 °F 31.0 °F 36.0 °F 96% 29.73 in 2.5 mi WNW 8.1 mph - 0.01 in   Overcast
6:20 PM 37.0 °F 31.6 °F 36.0 °F 96% 29.74 in 3.0 mi WNW 6.9 mph - 0.01 in Rain Light Rain
6:31 PM 37.0 °F 31.0 °F 35.1 °F 93% 29.75 in 6.0 mi NW 8.1 mph - 0.01 in Rain Light Rain
6:33 PM 37.0 °F 31.0 °F 35.1 °F 93% 29.75 in 7.0 mi NW 8.1 mph - 0.01 in Rain Light Rain
6:52 PM 36.0 °F 31.1 °F 35.1 °F 97% 29.75 in 10.0 mi NNW 5.8 mph - 0.01 in   Overcast
7:52 PM 36.0 °F 32.1 °F 35.1 °F 97% 29.74 in 10.0 mi West 4.6 mph - 0.00 in   Overcast
8:21 PM 34.0 °F - 33.1 °F 96% 29.74 in 1.8 mi Calm Calm - N/A   Mostly Cloudy
8:24 PM 34.0 °F - 33.1 °F 96% 29.74 in 1.0 mi Calm Calm - N/A   Scattered Clouds
8:33 PM 34.0 °F - 32.0 °F 92% 29.75 in 0.5 mi Calm Calm - N/A Fog Fog
8:43 PM 34.0 °F - 32.0 °F 92% 29.76 in 0.2 mi Calm Calm - N/A Fog Fog
8:52 PM 33.1 °F - 30.9 °F 92% 29.79 in 0.2 mi Calm Calm - N/A Fog Fog
9:06 PM 33.1 °F 28.7 °F 30.9 °F 92% 29.77 in 1.2 mi NNW 4.6 mph - N/A   Clear
9:08 PM 33.1 °F 28.7 °F 30.9 °F 92% 29.77 in 3.0 mi NNW 4.6 mph - N/A   Clear
9:52 PM 30.0 °F 26.5 °F 28.9 °F 96% 29.81 in 2.5 mi South 3.5 mph - N/A   Clear
9:57 PM 28.9 °F 25.2 °F 28.0 °F 96% 29.79 in 1.2 mi South 3.5 mph - N/A   Clear
10:08 PM 28.9 °F - 28.9 °F 100% 29.79 in 1.5 mi Calm Calm - N/A   Partly Cloudy
10:13 PM 28.9 °F 25.2 °F 28.9 °F 100% 29.79 in 1.0 mi SW 3.5 mph - N/A   Mist
10:22 PM 28.9 °F - 28.9 °F 100% 29.80 in 0.5 mi Calm Calm - N/A Fog Light Freezing Fog
10:52 PM 28.9 °F - 26.1 °F 89% 29.83 in 0.2 mi Calm Calm - N/A Fog Light Freezing Fog
11:52 PM 26.1 °F - 24.1 °F 92% 29.86 in 0.2 mi Calm Calm - N/A Fog Light Freezing Fog